Wind_Speed
6 7 7 7 8 10 11 10 8 7 6 6 7 8 9 9 7 7 7 6 6 7 7 7 8 9 9 9 10 10 9 9 9 8 8 7 4 3 3 2 1 2 2 2 2 1 1 0 1 1 2 2 3 3 3 3 3 3 3 2 2 2 2 2 2 1 1 2 2 2 2 3 3 4 4 5 5 5 5 6 6 7 7 7 7
6 6 7 8 9 10 11 10 8 9 9 8 8 7 7 8 6 6 7 6 6 7 8 7 8 8 8 9 10 10 9 9 9 8 8 7 4 4 3 2 1 2 3 3 4 3 2 2 3 3 3 3 1 1 1 2 3 3 3 3 3 3 3 3 3 2 2 1 1 1 1 1 1 2 3 3 4 4 5 5 5 6 6 6 6
7 7 7 8 9 9 9 10 10 12 10 7 7 5 6 7 6 6 5 6 6 6 7 8 9 9 8 9 10 9 9 9 9 8 8 8 5 5 4 4 3 4 4 5 6 6 6 5 5 4 6 6 4 3 2 1 1 2 3 3 3 4 4 4 4 4 4 3 3 2 2 2 1 1 1 1 2 3 3 4 4 5 5 5 6
9 8 7 8 10 9 8 9 11 11 9 7 5 5 5 7 6 5 5 6 7 6 7 8 9 8 9 9 8 8 8 8 7 7 8 8 6 5 6 6 6 6 6 6 7 8 8 8 7 6 6 7 6 6 5 4 3 2 1 1 2 3 5 5 5 5 5 5 5 4 4 3 3 3 2 1 1 1 2 3 3 4 4 5 5
10 9 9 10 10 9 8 8 9 9 8 6 4 4 6 7 6 6 6 6 7 7 7 8 9 9 8 8 8 8 7 6 7 7 6 5 5 6 8 7 7 7 7 7 7 7 8 8 8 8 7 6 6 7 7 7 6 5 5 4 4 4 4 4 5 5 5 6 6 6 6 5 5 4 4 3 2 1 1 1 2 2 3 4 4
11 10 9 10 11 9 8 8 9 8 7 6 4 5 6 4 4 5 7 7 6 6 7 7 8 8 8 8 7 7 7 6 6 6 5 5 7 7 7 6 4 5 5 5 6 6 7 7 8 8 8 7 6 6 7 8 8 7 8 8 9 9 8 7 6 6 5 5 6 7 7 7 7 6 6 5 4 3 2 2 2 2 2 3 3
12 12 10 10 11 9 7 8 8 7 6 6 5 5 5 3 3 5 7 7 6 7 8 8 9 8 9 7 7 7 6 6 5 5 7 5 6 6 5 4 5 5 5 3 4 4 5 6 7 7 7 7 7 7 8 8 7 7 8 8 10 11 11 10 8 7 5 4 4 5 6 7 8 8 7 6 6 5 4 4 3 3 2 2 3
11 13 12 11 10 9 6 6 5 5 5 5 6 6 6 6 6 7 7 7 7 8 8 9 9 7 8 6 6 7 5 6 6 6 7 5 4 5 4 5 7 7 6 4 4 3 3 4 5 5 5 5 5 6 7 6 6 6 6 6 6 7 8 9 8 8 6 4 3 3 4 5 7 8 8 7 7 6 6 5 5 4 4 3 3
9 10 11 9 9 8 7 4 3 5 5 5 6 7 7 8 8 7 8 8 9 8 6 7 7 5 6 5 6 7 5 6 6 5 6 5 5 6 5 5 7 8 7 5 5 4 2 2 3 3 3 4 4 5 5 4 4 4 5 5 5 5 6 6 7 7 7 7 5 3 3 4 5 5 7 8 7 7 7 7 6 6 5 5 4
6 7 7 7 6 5 6 7 6 7 7 6 6 8 10 10 10 9 9 9 8 9 7 7 7 5 5 5 6 6 4 5 5 4 4 4 5 7 7 6 6 7 7 6 4 3 3 2 1 1 2 3 3 3 3 3 3 2 2 3 4 5 5 4 5 6 6 7 7 7 6 6 6 5 5 7 8 8 8 8 7 7 7 6 6
4 4 5 5 5 3 4 7 8 8 8 7 6 9 11 10 11 11 11 10 9 10 10 8 6 6 5 4 5 4 3 5 6 5 4 5 5 6 7 7 7 7 7 8 7 4 3 2 2 1 2 3 3 3 3 3 3 2 2 3 4 5 5 5 6 7 7 7 6 7 8 8 8 7 6 6 7 8 8 8 8 8 8 7 7
3 4 4 4 4 5 4 5 7 8 9 8 7 8 9 9 11 11 11 12 12 12 10 8 7 7 6 3 3 3 3 5 7 4 2 4 5 4 6 7 7 8 8 8 7 5 3 2 4 2 2 4 4 4 4 4 4 4 4 5 5 6 6 6 7 8 8 9 9 8 8 8 8 8 8 7 7 8 8 9 9 9 9 9 8
2 3 3 4 5 5 5 4 4 5 7 7 7 8 8 8 9 9 11 13 13 12 10 9 9 9 8 5 4 4 4 5 6 4 2 2 3 3 4 4 5 6 6 5 4 3 3 3 3 3 3 3 3 4 4 4 4 4 5 5 6 6 7 8 8 9 10 10 10 10 10 8 8 8 9 9 8 9 9 9 10 11 10 10 9
1 1 1 3 4 4 4 4 4 4 5 7 8 8 8 9 10 10 11 13 14 12 11 10 9 8 8 6 5 5 5 5 6 5 4 2 2 1 1 1 2 3 4 5 5 5 3 4 4 3 2 1 1 3 4 3 4 5 6 7 8 9 9 10 10 10 11 11 11 12 12 11 10 9 9 9 9 9 10 10 11 11 11 11 10
1 1 0 0 1 2 2 4 4 4 5 6 7 8 9 10 11 12 12 13 12 10 9 10 9 8 6 6 7 7 6 7 7 6 5 2 0 0 1 1 2 2 3 3 6 9 8 8 6 4 4 3 3 4 5 5 6 6 7 7 8 9 10 10 11 12 11 12 12 13 13 13 12 12 11 10 10 10 10 10 10 11 11 12 11
2 1 1 1 1 2 3 4 5 5 5 4 5 6 8 9 11 11 11 10 9 9 10 10 9 6 5 6 9 8 7 8 9 7 4 3 1 1 2 2 2 3 4 5 7 9 10 10 7 5 6 6 5 4 4 5 6 6 6 6 5 6 7 8 10 11 12 13 13 14 14 14 14 14 14 13 12 11 10 10 10 10 11 12 12
2 2 2 1 1 1 2 2 3 4 4 3 3 3 5 7 9 10 10 8 8 7 8 9 9 6 5 5 5 5 7 9 8 5 4 4 2 1 1 2 2 2 5 7 9 10 10 9 8 7 8 8 6 2 2 3 5 6 7 6 5 4 4 5 6 7 9 11 13 15 16 16 16 15 16 15 14 14 12 10 10 11 11 12 12
4 2 1 1 0 1 1 2 1 3 4 4 4 4 4 4 6 8 9 8 8 7 5 6 7 7 6 4 2 4 8 10 8 6 7 6 4 4 4 4 3 4 8 12 11 11 10 10 10 9 9 9 6 3 3 4 4 5 6 7 7 6 6 5 5 6 7 8 10 12 14 16 16 16 17 17 15 15 15 11 11 11 12 12 12
4 2 1 0 1 2 3 4 2 3 4 4 5 6 5 3 3 5 6 6 6 6 5 4 5 6 6 6 4 4 8 10 8 8 8 8 6 6 6 7 7 8 11 13 12 11 11 10 10 10 9 9 7 5 5 5 5 6 7 8 8 8 9 9 9 9 8 9 10 11 11 12 14 15 17 18 16 16 15 12 12 12 12 12 11
4 3 1 1 3 4 4 4 4 4 3 4 5 6 5 4 3 3 3 4 4 5 5 4 4 4 5 6 5 5 6 7 8 9 9 10 8 6 6 7 8 10 10 11 11 11 12 10 9 10 10 8 7 7 7 7 7 8 8 9 9 10 10 10 11 11 10 9 10 11 11 10 11 13 15 16 16 16 15 12 13 13 13 13 12
3 3 2 2 3 3 2 4 6 5 4 4 5 5 4 4 3 2 2 2 3 3 3 4 4 3 3 4 4 4 5 7 8 8 10 11 9 7 8 7 8 9 9 10 10 10 11 11 10 10 10 8 6 8 8 8 9 9 9 9 9 10 10 11 11 12 12 11 10 12 11 10 9 9 11 12 12 15 16 14 14 15 14 14 13
3 4 4 3 3 3 1 3 5 6 4 5 5 5 4 4 3 2 2 1 2 2 3 3 4 5 3 3 4 3 4 6 7 7 9 10 9 9 9 8 9 9 9 10 10 10 9 10 10 9 9 8 5 6 8 8 8 8 9 9 9 9 10 10 10 11 11 11 11 12 12 11 9 8 8 9 9 11 14 14 14 15 15 16 15
4 5 5 5 4 4 2 2 3 4 4 5 5 4 4 4 4 3 2 1 0 1 2 2 3 6 5 3 4 3 3 5 5 6 8 9 8 9 9 8 9 9 9 9 9 9 9 9 9 8 9 7 5 7 8 9 9 9 9 9 9 9 9 10 10 10 10 9 10 10 11 11 11 9 8 8 8 8 11 12 12 14 16 17 17
4 5 6 6 5 4 3 2 3 3 4 5 5 4 4 3 4 5 4 3 3 2 3 3 4 5 5 4 4 4 4 4 5 5 8 9 9 9 8 8 8 8 8 9 9 8 9 9 9 8 8 8 6 8 10 10 10 9 9 9 9 9 10 10 10 10 10 9 9 9 9 9 9 9 9 9 9 7 7 9 11 13 14 13 13
5 5 6 6 5 5 4 3 4 5 4 5 6 6 5 4 5 5 5 5 6 5 5 6 7 7 7 7 6 6 7 6 6 7 8 9 9 9 8 7 8 8 8 8 8 8 8 8 8 7 7 6 5 7 11 11 10 10 10 10 10 10 11 11 11 11 11 10 10 10 9 8 8 8 8 8 8 8 7 5 5 7 8 8 9
6 5 5 6 6 7 7 6 5 5 5 7 9 9 7 6 8 8 7 7 7 7 7 8 9 9 9 9 8 7 7 7 6 7 8 8 8 8 8 7 6 7 8 8 7 7 8 8 7 6 5 5 4 6 9 10 10 10 9 9 10 11 11 11 12 12 12 11 11 10 10 10 9 8 7 7 7 7 7 6 5 5 5 6 7
6 7 7 7 8 9 7 7 7 6 7 8 9 11 10 8 8 8 8 7 7 6 6 7 8 10 10 9 8 8 8 7 6 7 7 7 7 6 7 6 5 6 7 7 7 7 6 6 6 6 6 7 6 5 7 9 11 11 10 11 12 12 11 11 12 12 12 12 12 12 11 11 11 10 8 7 7 7 6 6 6 6 7 8 10
7 8 8 9 10 10 9 8 8 8 9 9 9 10 10 9 8 8 7 7 7 7 6 7 7 10 11 10 9 9 9 9 8 8 9 7 7 6 5 5 6 6 6 6 6 6 5 4 5 5 5 7 7 7 7 8 10 11 11 12 12 11 12 12 11 12 12 12 12 12 12 12 12 12 11 10 9 8 8 8 8 9 10 11 13
8 9 10 11 10 9 8 8 8 8 8 8 9 10 10 10 10 10 9 9 9 9 9 9 9 10 12 11 10 9 10 10 9 10 10 9 7 6 4 3 3 4 6 5 5 5 4 4 5 5 5 6 7 8 7 6 9 11 9 10 11 11 12 11 11 12 12 13 13 13 13 13 13 12 12 12 12 11 10 10 10 11 11 13 14
10 11 11 11 9 8 7 7 8 8 8 8 8 9 9 9 10 9 10 10 9 10 10 11 11 12 12 11 11 11 10 10 11 11 11 10 8 6 5 3 2 2 5 6 6 5 4 4 4 4 4 4 5 6 7 7 9 10 8 9 11 12 11 10 11 12 13 13 14 14 14 13 13 13 13 13 13 13 13 12 12 12 12 13 14
11 12 11 10 9 8 7 7 7 8 8 8 8 8 8 9 9 9 9 9 9 10 11 11 12 13 13 13 13 13 12 11 11 11 11 10 8 6 6 5 4 5 4 6 6 6 4 3 2 2 3 3 3 5 8 9 11 10 9 10 12 12 12 11 11 13 14 15 15 15 15 15 14 14 14 14 13 13 13 13 13 14 14 14 14
11 11 10 9 8 8 8 7 8 8 8 9 9 10 10 10 9 9 10 10 10 11 11 12 12 12 13 13 13 13 11 9 9 9 9 9 8 7 6 6 5 7 6 5 6 6 4 2 2 1 4 4 3 3 6 9 12 13 9 9 13 14 14 15 16 16 16 17 18 17 17 16 16 16 15 15 15 14 14 14 14 14 14 14 14
11 11 9 9 9 8 8 8 9 9 10 11 11 11 11 11 11 12 12 11 10 11 12 12 12 11 10 10 11 10 9 8 7 6 6 7 6 6 6 5 5 5 4 5 6 5 2 3 2 1 5 5 0 3 6 8 12 13 8 11 16 14 11 14 17 18 18 18 20 21 21 20 20 19 18 17 16 16 15 15 15 15 15 15 15
12 11 10 10 9 8 9 8 9 10 11 12 12 12 12 13 14 14 12 9 10 12 12 10 10 10 9 8 8 7 7 8 7 4 4 4 3 4 5 4 4 4 3 3 3 3 1 3 0 3 4 6 0 5 9 10 13 12 5 8 12 9 8 12 15 18 21 21 21 22 22 22 23 22 22 21 19 19 18 17 17 16 16 17 17
12 11 11 11 10 10 9 9 9 10 10 12 12 12 13 14 14 14 12 10 11 12 11 8 8 9 9 7 7 7 6 7 8 6 5 4 2 3 4 3 4 4 3 3 2 1 1 1 1 2 2 5 3 2 6 10 14 13 6 5 7 6 9 13 13 15 22 25 24 22 22 22 22 22 22 22 23 22 21 20 19 19 18 18 18
12 11 11 12 11 11 10 9 10 10 10 11 11 11 12 12 12 12 12 11 11 10 9 7 7 7 7 7 7 7 7 8 8 6 6 6 4 3 3 3 3 5 5 4 1 0 1 2 2 2 3 5 5 4 5 7 10 11 7 6 8 8 9 12 13 14 21 28 28 25 24 23 23 21 21 22 23 23 23 23 22 21 20 20 19
13 12 12 12 12 12 11 11 11 10 10 11 11 11 11 11 10 10 10 10 10 10 9 9 9 8 8 7 8 8 8 8 7 6 6 7 5 4 4 3 2 4 5 3 1 1 1 2 4 6 6 5 5 6 7 7 7 8 6 6 8 9 10 12 14 14 19 27 31 29 27 28 27 26 25 24 23 23 23 23 23 23 22 22 21
13 13 13 13 13 12 12 12 12 11 11 11 11 11 11 11 11 10 10 10 10 9 9 10 10 9 9 9 8 9 9 8 8 8 8 9 8 7 7 6 6 6 5 3 2 2 2 3 4 6 7 6 7 8 7 7 9 8 8 8 10 11 12 13 15 16 17 21 28 30 30 29 29 30 31 29 26 25 24 22 22 23 23 23 23
14 14 13 14 14 13 12 12 13 12 12 12 12 12 12 12 12 12 12 11 10 10 10 9 9 10 10 10 10 10 10 10 10 10 11 11 10 9 9 10 12 11 7 5 4 4 4 3 5 6 6 7 9 8 6 7 9 9 9 12 15 16 15 15 17 18 16 16 21 25 26 27 30 32 32 32 30 29 27 25 24 24 23 23 23
14 14 14 14 14 14 13 13 13 13 14 13 13 13 13 13 13 13 13 12 12 12 12 12 11 12 11 11 11 11 11 11 11 11 11 11 10 10 9 9 13 13 7 6 6 6 5 5 6 7 7 7 9 9 7 8 10 11 12 14 17 19 19 19 19 17 15 15 17 21 24 26 30 31 31 31 29 28 29 28 28 27 25 23 23
15 14 14 14 15 14 14 15 15 15 15 15 15 15 14 14 14 14 14 14 13 13 13 13 14 14 14 14 14 13 14 14 13 12 12 11 9 9 9 9 11 11 8 8 7 6 7 8 8 8 9 9 9 9 8 9 10 11 13 14 16 18 19 21 20 16 15 16 18 23 27 30 32 33 30 25 23 25 28 29 30 29 27 26 26
14 15 14 14 15 15 15 16 16 17 17 17 18 19 18 16 15 15 15 16 15 15 15 14 15 15 15 16 16 16 18 18 16 14 14 13 10 11 13 11 10 10 10 9 8 7 8 9 9 9 9 10 10 9 9 10 11 11 12 14 17 19 19 20 20 19 17 16 19 27 33 34 33 31 25 20 19 23 24 23 26 29 29 27 27
15 15 16 16 16 16 16 17 17 19 20 21 22 22 21 20 19 18 18 18 17 17 17 17 17 18 18 18 17 18 20 20 20 18 16 15 13 14 15 14 13 12 11 10 8 8 9 9 8 9 9 9 10 9 10 11 10 11 15 17 18 18 17 18 20 22 20 19 23 32 36 34 29 26 23 21 20 21 20 21 25 29 30 29 28
18 18 19 18 17 16 17 18 18 20 22 22 22 22 22 23 22 21 20 19 19 20 20 21 21 21 22 20 18 19 19 19 20 20 18 17 16 15 15 15 14 14 14 13 11 9 9 8 7 7 8 9 9 9 11 13 13 16 20 20 17 16 18 20 22 23 25 26 29 32 33 32 28 24 22 22 20 20 21 23 27 30 31 32 31
20 20 20 19 19 18 19 19 19 19 20 20 20 21 22 22 23 22 21 20 20 21 23 24 23 22 21 19 17 18 18 18 19 19 18 16 15 14 14 14 15 16 16 16 15 13 12 12 9 7 8 10 9 10 14 17 18 20 22 22 21 22 23 24 25 27 30 30 28 28 30 31 27 21 20 23 23 21 21 23 27 30 32 33 34
18 19 19 20 20 21 22 22 22 22 22 21 21 22 22 22 23 23 23 20 20 21 23 24 23 19 16 14 12 12 15 16 15 13 13 13 12 12 12 13 15 16 16 17 17 16 15 14 12 11 12 13 12 14 18 19 20 22 24 25 25 26 27 28 30 31 30 28 25 24 25 26 23 21 21 22 22 21 21 23 26 29 32 33 33
16 18 19 19 20 21 22 22 22 23 24 23 23 24 23 23 25 27 26 24 24 25 25 26 24 19 13 9 8 9 11 12 10 10 12 12 10 10 10 13 15 16 17 18 17 15 14 14 14 14 15 15 15 17 19 20 21 23 24 25 27 28 29 28 27 26 24 21 19 19 22 22 21 22 22 21 22 22 22 23 26 29 31 31 30
15 17 19 19 22 24 23 23 24 24 24 24 25 25 25 25 26 26 24 23 23 23 22 20 18 14 9 8 8 8 9 11 10 10 12 10 9 9 10 12 15 16 18 18 16 15 15 15 15 15 16 16 17 18 19 20 22 23 24 26 26 25 22 20 21 20 19 17 16 17 22 23 21 21 22 21 22 23 24 24 26 26 26 26 28
14 16 17 17 20 22 23 25 26 24 25 26 26 26 25 24 22 20 17 17 16 15 14 13 11 10 11 11 10 9 10 11 9 9 10 9 8 8 9 11 14 16 16 16 16 16 16 16 16 16 17 18 18 19 20 21 22 23 24 24 24 22 19 19 19 19 18 18 18 18 21 21 20 20 22 22 23 24 25 24 21 21 22 25 27
14 14 15 16 17 17 19 21 22 21 22 22 21 20 19 18 17 16 14 12 12 12 12 10 10 11 13 11 10 10 10 9 7 7 8 7 6 7 8 11 13 14 14 15 15 16 16 16 17 18 18 19 19 20 21 22 23 23 23 23 24 23 20 18 17 18 18 18 16 16 17 18 18 19 21 24 24 22 21 19 18 19 21 23 26
13 14 15 15 16 17 18 19 19 19 18 16 15 16 16 16 16 17 14 12 12 13 12 10 10 12 12 10 11 11 10 8 8 8 8 7 8 8 8 9 9 11 13 13 13 14 16 16 18 19 20 21 22 23 25 25 25 24 24 25 25 20 16 15 16 17 18 16 14 15 18 19 19 20 21 24 25 23 19 18 19 19 19 21 23
Wind_Direction
211 214 223 210 204 205 211 227 234 214 212 228 222 229 228 209 205 201 186 183 181 178 179 183 179 172 179 179 172 178 181 181 184 189 207 218 213 215 247 268 331 9 9 17 54 93 108 40 332 94 111 123 157 186 184 188 204 216 239 260 274 286 293 309 321 340 7 34 25 29 44 53 51 45 44 48 52 52 49 45 42 36 31 33 36
217 218 222 219 210 206 213 220 224 219 219 226 228 243 244 220 202 192 186 179 180 180 174 177 178 172 174 173 171 178 181 183 185 182 193 202 195 196 202 181 140 55 57 57 74 89 96 75 39 53 76 74 117 195 189 181 197 210 227 252 270 280 280 278 274 277 282 283 314 335 353 8 39 47 41 40 44 49 50 46 41 38 31 26 28
222 224 232 240 232 221 220 220 228 237 238 239 242 260 267 246 221 192 186 182 177 176 175 172 172 173 171 171 172 175 179 185 182 178 189 189 176 173 159 129 109 89 83 79 82 88 91 86 67 62 69 66 70 72 57 85 166 211 225 244 271 291 293 291 282 268 266 265 263 267 276 285 290 301 46 40 36 40 44 45 40 38 29 20 24
228 227 233 250 252 242 226 223 237 246 246 244 247 262 254 246 240 209 186 187 185 176 173 170 169 173 173 173 174 175 178 184 181 181 197 195 169 145 127 109 100 92 87 88 88 88 88 85 76 71 71 70 70 70 65 62 64 72 96 303 315 314 306 305 300 283 269 263 261 260 260 260 266 270 264 271 350 26 33 36 37 35 26 16 20
231 227 225 239 250 247 237 235 241 243 242 241 245 256 248 242 242 220 185 184 191 177 170 171 168 169 172 174 175 175 178 184 178 178 200 193 156 141 128 112 96 89 88 92 92 91 91 88 84 79 76 73 69 69 72 70 66 68 72 61 42 23 358 333 324 313 292 276 268 264 263 262 260 261 265 265 270 285 332 1 17 22 21 15 12
236 231 226 237 246 241 238 241 238 234 233 240 245 244 248 240 227 223 199 196 202 181 175 172 165 168 168 169 175 175 173 180 177 176 189 161 140 148 143 132 123 110 103 95 92 97 101 100 96 88 80 75 70 71 75 74 71 70 69 64 55 46 37 22 4 352 329 304 289 278 272 274 272 270 271 272 275 279 287 300 319 344 3 7 359
242 238 226 228 239 236 231 233 228 228 231 238 242 232 233 213 210 232 211 205 212 193 183 170 162 172 172 168 176 176 170 170 171 176 181 168 154 165 165 162 176 168 151 132 107 105 105 105 101 97 90 78 67 65 70 73 73 73 72 65 57 49 42 35 25 16 360 334 312 298 284 276 275 275 276 276 278 281 283 286 291 301 318 340 346
239 242 234 226 231 229 222 232 223 212 222 230 230 220 214 209 220 235 216 203 205 200 189 168 162 169 173 170 167 167 165 165 174 193 191 188 164 149 147 151 165 181 186 188 172 133 105 101 100 94 88 80 68 62 59 57 56 55 55 49 42 39 38 38 32 24 16 2 337 315 302 286 275 271 272 274 276 277 278 279 280 287 295 307 318
231 238 240 230 229 219 197 202 203 192 195 205 214 210 206 210 216 221 216 210 204 203 191 168 171 171 172 173 168 167 159 159 176 201 190 175 149 136 148 164 172 193 203 195 178 174 167 117 95 74 64 60 57 58 51 37 30 26 20 12 356 352 8 25 26 22 22 18 10 348 324 310 295 276 266 264 268 272 273 274 277 280 285 290 298
227 232 239 226 227 209 160 151 170 187 184 183 197 201 202 207 209 206 209 209 201 203 198 187 187 175 180 192 183 172 153 165 193 212 190 173 162 156 169 199 205 209 218 213 193 189 192 176 115 51 29 28 32 37 41 25 13 4 341 329 321 325 332 334 338 349 3 12 15 7 349 331 319 306 283 267 263 267 268 269 271 272 275 277 284
236 228 224 205 199 177 145 151 171 187 181 171 177 194 199 203 209 208 206 205 206 208 195 189 189 164 173 205 187 162 147 180 199 207 202 200 197 180 187 212 222 217 225 228 221 215 193 202 243 313 351 347 351 340 348 346 330 320 302 294 296 305 313 304 298 305 314 325 338 350 351 343 330 321 314 299 283 275 271 270 270 269 270 270 272
243 229 207 180 171 167 170 166 170 179 174 170 172 183 194 203 214 216 211 207 214 217 195 185 195 174 168 181 167 155 158 183 190 187 188 203 210 212 214 218 218 212 217 224 213 203 197 230 256 247 295 311 308 312 324 321 309 305 298 291 290 294 299 297 292 293 296 300 300 305 319 330 330 324 317 311 302 292 281 275 273 272 271 269 269
245 254 208 174 175 173 175 168 167 171 166 177 186 187 196 210 216 220 221 217 219 220 203 196 205 194 183 180 186 192 186 183 183 184 175 198 207 213 228 221 208 198 196 202 184 166 193 207 236 239 241 280 299 315 333 328 311 302 295 289 291 295 295 293 292 290 288 289 290 292 294 300 310 315 314 309 304 299 290 281 276 276 274 271 268
198 283 243 181 177 177 177 161 160 169 166 180 194 200 204 214 221 221 223 223 225 223 209 204 208 206 193 181 203 213 204 189 175 192 207 214 237 223 224 176 169 170 163 172 144 117 130 145 151 174 177 190 332 343 352 343 319 309 303 296 291 291 289 288 288 287 285 285 286 289 289 289 288 290 299 305 303 299 293 287 281 277 276 272 266
140 128 336 165 156 169 157 136 143 160 171 182 193 202 201 212 221 218 219 222 226 231 220 208 208 214 197 190 217 203 188 195 187 207 215 182 347 192 156 146 167 154 131 126 112 110 107 99 107 128 110 83 49 17 12 0 336 323 317 311 298 287 284 284 285 286 286 286 286 284 282 282 280 275 275 283 292 294 289 283 278 274 273 272 268
104 117 136 114 112 118 121 134 147 152 165 190 198 197 195 210 219 215 222 224 219 226 224 212 207 213 202 211 227 198 179 195 189 202 213 162 131 178 174 161 141 116 102 94 95 101 99 89 84 84 80 68 53 38 30 7 348 345 349 346 322 297 288 288 290 289 287 285 285 284 281 279 278 276 271 268 273 278 279 276 271 267 267 267 266
106 92 126 139 165 163 141 150 160 149 154 166 170 179 186 201 214 217 222 215 207 219 226 218 207 211 227 227 217 174 173 186 173 169 171 148 120 115 144 120 116 108 103 95 83 80 81 83 80 81 86 79 63 60 74 27 2 7 13 14 7 345 327 315 311 304 296 290 285 281 280 278 279 280 276 271 268 268 269 271 266 260 258 261 264
126 124 172 177 272 253 144 142 184 169 162 156 148 162 185 195 202 211 220 212 209 220 226 228 214 209 232 232 176 132 158 167 155 149 150 134 103 86 84 88 81 75 90 89 82 81 82 80 78 81 90 92 80 54 60 60 41 35 34 40 48 41 34 22 4 347 332 321 308 293 282 275 274 275 274 270 267 268 270 270 263 255 252 255 261
135 132 233 284 108 105 101 111 132 147 163 176 159 161 179 206 202 197 213 213 217 220 203 220 232 212 215 212 181 148 154 158 155 156 148 134 123 110 98 99 92 80 84 88 90 94 89 79 78 78 78 84 85 66 56 62 57 52 49 49 48 42 35 29 22 11 358 347 341 330 308 288 278 274 273 270 266 267 271 267 259 256 254 254 259
139 118 75 67 99 94 89 100 107 113 139 168 160 158 166 186 207 193 199 201 215 220 191 193 219 210 209 209 191 171 163 164 163 157 146 141 141 128 111 108 102 93 90 92 96 99 96 88 82 81 79 80 85 79 67 62 56 47 47 47 43 39 34 30 28 22 10 1 356 350 338 321 302 288 282 279 268 262 263 256 250 252 254 254 259
161 139 109 90 94 90 98 113 112 109 117 138 140 146 157 170 196 207 214 218 219 213 181 190 191 159 181 193 177 174 168 165 168 160 148 145 146 140 128 115 102 96 92 91 91 91 93 91 84 81 80 71 64 66 58 49 48 42 39 41 37 35 32 29 28 25 20 18 16 10 1 348 332 313 301 291 272 259 255 248 243 246 251 253 256
188 163 134 133 125 107 118 126 117 115 120 124 119 132 155 160 172 197 220 228 225 197 175 190 162 128 136 148 147 178 173 163 173 169 153 147 148 148 139 123 107 97 90 88 87 85 83 86 86 82 79 70 42 45 48 34 30 28 24 24 22 21 21 19 18 18 19 20 18 19 18 14 5 347 326 314 297 268 254 248 245 246 249 252 255
201 183 161 155 141 126 130 123 116 115 113 105 95 113 153 160 157 153 154 142 139 174 166 192 150 129 124 122 142 170 163 159 165 163 157 152 148 142 134 122 111 105 101 96 91 87 83 81 80 76 77 73 25 11 27 23 14 12 9 7 5 5 5 5 5 6 10 10 11 14 17 19 17 12 4 350 333 291 256 245 247 249 249 253 259
185 181 176 162 144 133 126 120 148 148 125 112 106 110 123 143 149 141 135 119 99 106 118 111 113 119 113 104 122 120 101 117 121 121 143 148 142 134 128 121 113 111 111 104 97 90 84 78 76 72 69 71 37 358 3 12 8 4 4 2 2 3 2 2 1 1 3 2 1 2 4 10 11 13 17 14 5 338 287 255 249 253 256 261 270
165 170 176 163 151 146 144 167 189 186 164 137 123 113 105 108 114 115 120 112 104 105 104 104 102 96 90 86 87 83 75 82 86 89 111 127 130 128 126 123 121 123 122 114 107 95 84 74 72 70 63 65 45 351 353 4 4 4 7 5 6 7 5 5 5 4 4 3 1 358 355 355 357 359 3 8 13 8 354 321 278 269 266 269 273
162 164 172 170 175 176 176 180 179 180 170 145 128 117 106 106 108 106 108 108 111 109 101 101 100 93 90 86 84 83 80 83 83 86 100 116 124 126 124 124 129 135 134 126 112 96 86 72 62 64 51 44 37 356 352 3 6 6 11 13 13 12 8 7 5 3 2 3 2 359 356 353 351 348 344 344 347 352 358 351 333 317 298 289 283
170 180 185 179 173 168 162 153 143 137 131 124 123 123 118 117 123 124 117 113 114 111 106 109 109 105 100 92 91 92 88 87 88 95 102 110 123 125 122 128 134 132 127 120 106 92 88 74 55 48 26 16 27 11 357 10 15 10 16 24 21 14 12 9 6 5 2 360 359 356 355 353 350 348 343 335 326 318 315 309 303 300 295 292 286
179 187 176 159 151 147 144 141 137 132 124 116 118 123 119 119 134 140 127 118 118 114 116 122 126 122 110 96 95 97 94 93 97 106 101 95 114 121 115 127 130 125 122 113 100 88 82 73 52 42 26 18 28 29 22 17 12 11 16 18 17 14 14 13 9 7 4 2 360 356 353 350 347 345 342 338 331 318 306 294 284 279 278 279 279
179 175 159 149 147 148 153 155 152 147 137 127 124 123 117 119 132 139 133 131 131 128 128 129 129 123 108 94 91 96 97 97 100 109 103 93 108 112 99 116 124 130 144 131 102 93 87 75 57 38 23 20 25 33 41 21 8 19 20 6 8 13 10 10 10 9 7 3 0 358 355 351 348 343 339 337 332 327 320 309 298 289 282 280 279
177 170 161 159 159 158 163 166 165 163 154 144 135 127 122 126 131 133 134 133 134 136 137 136 133 125 114 106 106 109 109 108 108 107 97 87 93 92 85 96 70 92 153 151 116 98 89 83 79 61 42 30 21 22 29 21 10 13 5 355 2 4 0 3 6 5 5 3 359 357 355 352 349 346 341 338 334 329 325 319 314 306 298 292 287
176 173 167 166 165 163 162 160 162 168 165 159 150 140 135 134 129 129 134 135 139 142 139 138 136 131 125 118 115 114 110 109 110 104 95 88 86 82 82 91 66 56 103 148 133 112 106 101 84 59 41 30 10 352 354 1 1 356 353 358 357 350 347 354 2 3 1 358 355 353 351 349 347 344 341 338 335 332 328 323 318 313 308 303 297
175 174 168 165 163 159 154 148 151 156 158 155 151 146 137 125 120 127 130 127 129 134 133 134 132 126 125 123 120 114 103 99 102 101 103 100 91 85 82 85 81 69 76 109 117 115 114 88 73 24 359 7 24 0 344 342 348 353 354 348 347 350 352 351 353 357 357 353 351 349 347 345 343 340 337 334 331 329 326 322 319 315 311 308 303
175 171 167 167 164 158 151 145 145 147 150 149 143 139 134 128 128 129 122 115 122 133 134 132 129 122 121 126 130 123 108 103 99 89 95 98 89 91 91 86 91 86 85 102 112 116 87 42 104 193 356 18 72 298 333 340 349 357 347 332 344 358 357 343 340 341 345 349 347 345 344 342 340 337 334 332 329 326 323 320 317 314 311 309 307
171 167 171 171 165 161 156 150 147 145 147 146 140 138 140 141 139 131 122 121 135 142 137 133 141 143 136 136 145 144 134 125 114 106 115 105 90 111 107 97 106 97 87 106 127 139 99 20 302 231 345 24 296 288 328 343 354 5 350 315 334 340 325 331 334 327 330 338 340 340 339 336 335 334 331 330 327 324 322 319 316 314 311 309 307
167 168 177 173 167 166 162 158 156 150 151 150 145 146 148 146 145 141 137 142 149 148 141 139 155 161 158 164 175 181 177 153 142 155 162 141 127 141 137 130 138 143 147 143 141 155 179 314 303 224 294 345 341 312 324 326 341 358 359 311 323 320 306 322 329 317 318 328 332 332 331 328 326 326 324 323 322 320 319 317 315 313 311 309 308
170 174 179 174 170 172 169 169 167 163 165 162 153 152 153 152 155 156 154 157 157 151 146 149 163 172 174 183 192 195 193 179 171 181 181 168 160 160 167 176 183 192 183 161 136 313 240 263 296 296 314 328 330 335 331 324 332 342 341 326 331 327 305 310 321 315 314 321 325 328 329 326 323 323 322 321 320 318 316 315 314 312 310 309 307
178 178 179 176 176 177 176 177 179 176 177 173 164 166 167 163 164 167 166 169 168 163 165 172 179 184 184 189 199 201 197 193 187 185 187 184 171 158 171 182 193 197 188 175 177 227 251 269 279 300 317 319 314 319 319 325 333 329 322 322 330 331 317 311 317 316 313 316 321 325 329 328 327 327 326 325 322 318 315 314 313 312 310 309 307
186 183 182 182 181 181 181 183 186 186 186 184 179 181 183 180 180 181 181 185 184 180 186 191 191 194 194 193 202 206 202 199 194 192 199 198 184 183 195 188 185 201 206 211 233 229 247 276 280 294 307 305 311 321 316 319 334 335 325 318 323 328 321 312 313 316 314 310 313 320 326 328 329 327 326 325 324 320 317 315 312 309 309 310 309
191 187 187 188 185 184 186 188 190 190 190 190 188 188 191 192 195 195 195 198 195 190 195 198 200 205 202 198 204 211 208 203 204 211 219 218 212 225 234 210 208 230 235 215 231 240 234 261 282 289 296 299 307 316 315 313 321 324 317 314 319 324 321 315 315 317 316 305 303 312 320 322 324 326 325 324 324 321 319 319 316 310 309 310 308
198 194 193 194 191 189 190 194 196 196 196 197 196 196 195 197 200 202 203 201 197 201 206 202 203 210 210 207 210 214 217 217 215 217 229 236 232 241 253 229 222 238 236 210 227 239 239 258 277 283 288 291 295 301 308 309 310 310 310 312 318 322 321 319 318 317 316 308 299 303 311 316 320 323 323 322 321 319 318 320 317 312 312 312 308
203 201 200 201 201 198 198 200 201 202 204 204 204 204 199 200 204 204 207 207 203 210 216 212 214 218 217 216 218 218 223 231 232 226 233 242 231 225 240 236 230 233 224 219 232 239 250 263 271 276 280 285 293 303 308 305 304 304 307 312 318 321 319 317 318 316 315 311 302 302 309 315 318 320 321 320 315 312 315 318 315 314 316 316 313
207 206 206 207 209 207 206 207 206 207 206 204 208 211 206 203 205 204 210 216 214 217 220 220 224 227 226 226 229 230 232 239 244 239 240 244 230 222 232 233 228 225 220 221 230 241 253 262 272 278 279 285 295 301 300 300 301 300 302 308 314 317 318 315 313 313 315 311 303 303 310 314 316 318 317 312 305 306 310 309 307 312 317 316 314
209 210 209 209 212 213 214 215 214 214 214 212 216 221 219 215 215 216 221 224 222 223 227 229 231 238 238 232 230 233 235 239 243 241 241 242 237 235 238 236 231 227 225 221 219 238 259 265 272 276 273 280 291 294 292 290 286 285 297 309 315 316 315 311 308 310 312 309 302 305 311 314 315 314 313 311 308 305 302 295 296 305 311 312 313
209 214 217 215 214 216 219 220 220 224 227 227 230 235 233 230 230 231 234 234 232 233 238 242 246 248 243 238 241 244 241 240 242 241 238 239 240 241 240 239 239 237 236 232 219 220 238 249 263 274 271 276 287 286 278 274 275 288 302 312 313 308 306 306 305 306 308 307 306 309 312 314 316 316 314 313 309 302 298 297 299 303 307 310 312
219 223 227 226 223 222 224 224 222 226 232 233 236 239 238 236 238 239 240 240 242 245 246 248 251 248 242 245 253 251 243 241 241 237 236 237 238 240 239 240 243 242 241 240 231 223 227 236 251 268 264 262 266 270 275 279 286 296 305 309 308 306 306 306 304 304 308 313 316 316 315 317 319 314 307 308 308 303 299 298 299 302 306 310 312
231 231 231 233 232 231 232 233 231 232 236 237 238 240 241 242 244 245 244 240 237 242 246 250 253 251 247 252 251 235 231 236 233 226 231 235 230 233 241 242 244 244 240 238 237 235 237 246 258 264 264 265 270 278 286 292 295 299 304 308 308 308 308 308 310 313 318 323 324 315 307 309 312 305 300 305 307 303 299 298 298 300 305 308 308
240 240 240 240 241 239 239 238 237 237 239 240 239 239 242 245 247 249 250 247 245 249 255 261 263 258 250 248 243 225 219 223 217 204 214 227 225 228 242 245 245 244 238 235 239 242 245 255 264 267 272 279 284 286 289 293 296 300 304 306 307 310 312 313 315 316 317 316 311 298 292 295 300 299 298 301 302 300 298 297 297 299 302 303 304
247 250 252 250 246 244 242 242 242 241 242 243 244 244 244 246 249 250 250 249 250 254 256 258 257 249 234 225 224 218 212 217 217 207 209 226 236 237 242 241 239 241 240 238 242 246 250 259 268 274 281 286 287 286 288 293 298 302 304 306 309 313 312 307 303 303 303 300 297 293 291 293 295 295 297 299 300 299 297 297 300 302 301 299 301
251 254 258 255 247 242 241 245 246 246 244 245 249 250 247 244 243 240 236 234 237 240 238 234 229 225 220 212 202 196 207 220 222 212 217 233 242 237 234 233 237 245 246 242 243 248 255 264 274 281 285 286 287 288 292 297 301 302 304 306 309 310 305 299 297 298 298 298 299 296 290 290 294 295 297 299 298 297 298 301 304 301 298 298 302
253 254 255 254 247 240 238 240 239 237 237 238 240 240 235 230 225 214 210 214 215 216 218 211 207 216 218 210 197 192 204 220 221 216 225 226 212 212 220 226 236 248 250 244 244 251 260 270 278 283 285 286 288 292 296 299 300 302 304 306 308 308 304 300 297 297 297 298 301 301 296 294 297 299 301 302 302 301 301 302 301 297 299 303 308
252 251 248 244 242 238 237 237 231 227 228 225 222 221 215 209 204 200 199 204 206 208 205 194 201 218 217 207 207 209 214 226 227 225 229 211 188 194 211 217 224 240 250 250 247 255 268 276 280 282 283 286 291 295 298 301 304 307 309 310 312 311 305 299 298 300 301 299 295 297 300 301 301 302 305 306 304 304 302 301 302 301 300 301 303
Height
1545 1545 1546 1546 1546 1547 1550 1551 1551 1549 1548 1548 1547 1548 1547 1547 1547 1547 1547 1547 1547 1548 1549 1549 1549 1549 1550 1549 1550 1551 1552 1553 1554 1554 1554 1555 1556 1557 1557 1557 1558 1558 1558 1559 1559 1559 1559 1559 1560 1560 1561 1561 1561 1561 1562 1562 1562 1562 1562 1562 1562 1563 1563 1563 1563 1563 1563 1563 1563 1564 1563 1563 1563 1563 1564 1563 1563 1563 1563 1563 1562 1562 1562 1561 1561
1543 1544 1544 1545 1545 1546 1547 1549 1550 1549 1548 1548 1547 1547 1548 1548 1547 1547 1548 1548 1548 1548 1548 1549 1549 1549 1550 1549 1550 1550 1551 1552 1553 1554 1554 1554 1555 1556 1558 1558 1558 1559 1559 1559 1559 1559 1560 1560 1560 1560 1561 1561 1561 1562 1562 1562 1562 1562 1562 1562 1562 1563 1563 1563 1563 1563 1563 1563 1563 1564 1564 1564 1564 1564 1564 1564 1564 1564 1563 1563 1563 1563 1562 1562 1562
1541 1542 1543 1544 1544 1545 1545 1546 1547 1548 1547 1548 1548 1548 1549 1550 1549 1547 1548 1548 1548 1548 1548 1549 1549 1550 1550 1550 1550 1550 1551 1552 1552 1554 1553 1554 1555 1556 1558 1559 1560 1560 1560 1560 1560 1560 1560 1560 1561 1561 1561 1561 1561 1562 1562 1562 1562 1562 1562 1562 1563 1563 1563 1563 1563 1563 1563 1563 1563 1564 1564 1564 1564 1564 1564 1564 1564 1564 1564 1563 1563 1563 1563 1563 1562
1540 1541 1542 1542 1543 1543 1543 1544 1546 1547 1547 1547 1548 1548 1549 1550 1550 1547 1547 1548 1548 1547 1548 1549 1549 1550 1550 1549 1550 1550 1551 1552 1553 1553 1552 1553 1556 1557 1560 1561 1561 1561 1561 1560 1560 1560 1560 1561 1561 1561 1561 1561 1562 1562 1562 1562 1562 1563 1563 1563 1563 1563 1563 1563 1563 1563 1563 1563 1564 1564 1564 1564 1564 1564 1564 1564 1564 1564 1564 1564 1564 1564 1563 1563 1563
1539 1540 1541 1541 1542 1542 1543 1544 1545 1546 1546 1546 1547 1548 1549 1551 1552 1549 1547 1547 1548 1548 1548 1548 1549 1549 1550 1550 1550 1550 1552 1552 1553 1554 1552 1553 1556 1558 1560 1562 1562 1562 1562 1561 1561 1561 1561 1561 1561 1562 1562 1562 1562 1562 1562 1563 1563 1563 1563 1564 1564 1563 1563 1563 1563 1563 1563 1563 1564 1564 1564 1564 1564 1564 1564 1564 1564 1564 1564 1564 1564 1564 1564 1564 1563
1538 1539 1540 1541 1542 1542 1543 1544 1545 1545 1545 1546 1546 1548 1550 1551 1552 1551 1548 1547 1548 1548 1548 1548 1548 1549 1549 1550 1550 1551 1552 1552 1553 1554 1552 1553 1557 1558 1559 1562 1562 1562 1562 1561 1561 1561 1561 1561 1561 1562 1562 1562 1563 1563 1563 1563 1563 1564 1564 1564 1564 1564 1564 1564 1564 1563 1563 1563 1563 1564 1564 1564 1564 1564 1564 1564 1564 1564 1565 1565 1565 1565 1565 1564 1564
1537 1538 1539 1541 1542 1542 1543 1543 1544 1545 1544 1545 1546 1547 1549 1549 1550 1549 1548 1548 1548 1548 1548 1548 1548 1549 1549 1549 1550 1550 1551 1552 1552 1553 1552 1553 1556 1557 1557 1560 1561 1561 1561 1561 1561 1561 1561 1561 1562 1562 1562 1563 1563 1563 1563 1564 1564 1564 1564 1565 1565 1565 1565 1564 1564 1563 1563 1563 1563 1563 1563 1563 1564 1564 1564 1564 1564 1564 1565 1565 1565 1565 1565 1565 1565
1536 1537 1538 1539 1541 1542 1542 1543 1544 1544 1544 1543 1544 1545 1547 1548 1548 1547 1547 1548 1549 1548 1548 1548 1548 1548 1549 1549 1550 1550 1551 1552 1552 1552 1553 1553 1555 1556 1557 1559 1559 1559 1560 1560 1560 1561 1562 1562 1562 1563 1563 1563 1563 1564 1564 1564 1564 1564 1564 1565 1565 1565 1565 1565 1564 1564 1563 1563 1563 1563 1563 1563 1563 1563 1563 1564 1564 1564 1564 1564 1565 1565 1565 1565 1565
1535 1536 1536 1537 1539 1541 1542 1543 1544 1544 1544 1543 1543 1544 1546 1547 1547 1547 1547 1548 1549 1549 1548 1548 1548 1548 1549 1549 1549 1549 1550 1551 1551 1552 1553 1553 1555 1557 1557 1558 1558 1558 1559 1559 1559 1560 1561 1562 1563 1564 1564 1564 1564 1564 1564 1565 1565 1565 1565 1565 1565 1565 1565 1565 1565 1565 1564 1564 1564 1563 1563 1563 1563 1563 1563 1563 1563 1563 1563 1564 1564 1564 1564 1564 1564
1534 1534 1535 1536 1537 1539 1541 1542 1543 1543 1544 1544 1544 1545 1546 1547 1547 1547 1548 1549 1549 1549 1549 1549 1549 1549 1549 1549 1549 1549 1550 1551 1551 1552 1552 1554 1555 1556 1557 1557 1557 1558 1558 1559 1560 1560 1561 1563 1564 1564 1564 1564 1564 1564 1565 1565 1565 1565 1565 1565 1565 1564 1565 1565 1565 1565 1565 1565 1565 1564 1564 1564 1563 1563 1563 1563 1563 1563 1563 1563 1564 1564 1564 1564 1564
1533 1534 1534 1535 1537 1538 1539 1541 1543 1543 1543 1544 1545 1546 1546 1547 1547 1548 1549 1549 1549 1549 1549 1549 1549 1549 1549 1549 1549 1550 1550 1550 1551 1552 1553 1554 1555 1556 1557 1556 1556 1557 1558 1560 1560 1561 1561 1563 1564 1564 1564 1564 1564 1565 1565 1565 1565 1565 1565 1565 1564 1564 1565 1565 1565 1565 1565 1565 1565 1565 1565 1565 1564 1564 1563 1563 1563 1563 1563 1563 1563 1563 1563 1564 1564
1533 1533 1533 1534 1536 1537 1538 1540 1542 1542 1542 1543 1545 1546 1546 1547 1547 1548 1549 1549 1549 1549 1549 1549 1548 1549 1549 1550 1551 1550 1550 1550 1551 1553 1553 1554 1555 1556 1556 1556 1556 1557 1559 1560 1560 1561 1562 1564 1564 1564 1565 1564 1564 1564 1564 1564 1564 1564 1564 1564 1564 1564 1564 1565 1565 1565 1565 1565 1565 1565 1565 1565 1565 1564 1564 1564 1563 1563 1563 1563 1563 1563 1564 1564 1564
1534 1533 1533 1534 1535 1536 1538 1540 1541 1541 1542 1543 1544 1545 1546 1547 1547 1547 1548 1548 1549 1550 1550 1548 1548 1548 1549 1550 1550 1550 1550 1551 1552 1553 1554 1554 1555 1555 1556 1556 1556 1557 1559 1560 1560 1562 1563 1563 1564 1564 1565 1564 1564 1564 1563 1563 1564 1564 1564 1564 1564 1564 1564 1564 1564 1565 1565 1565 1565 1565 1565 1565 1565 1565 1564 1564 1563 1563 1563 1563 1563 1563 1563 1564 1564
1534 1534 1534 1534 1535 1536 1537 1538 1539 1540 1542 1542 1544 1545 1546 1547 1547 1547 1547 1547 1548 1550 1549 1547 1547 1547 1548 1550 1550 1551 1551 1551 1552 1553 1553 1554 1555 1556 1556 1557 1557 1557 1559 1560 1560 1561 1562 1562 1562 1563 1564 1564 1564 1563 1563 1563 1563 1563 1563 1563 1563 1563 1563 1563 1563 1564 1564 1564 1564 1564 1564 1564 1565 1564 1564 1564 1563 1563 1563 1562 1562 1563 1563 1563 1563
1533 1534 1534 1534 1535 1535 1535 1537 1538 1540 1541 1542 1543 1544 1545 1545 1545 1545 1546 1546 1547 1548 1547 1547 1547 1547 1548 1550 1551 1551 1550 1550 1551 1552 1553 1555 1556 1556 1557 1558 1557 1557 1558 1559 1560 1561 1561 1561 1562 1563 1564 1564 1564 1563 1563 1563 1563 1563 1562 1562 1562 1562 1562 1562 1563 1563 1563 1563 1563 1563 1563 1563 1563 1563 1563 1563 1563 1562 1562 1562 1562 1562 1562 1562 1563
1534 1534 1534 1534 1534 1535 1536 1537 1538 1539 1540 1541 1542 1543 1544 1543 1542 1543 1544 1544 1545 1546 1545 1545 1546 1547 1547 1549 1550 1550 1549 1549 1550 1551 1553 1554 1555 1556 1557 1559 1558 1557 1558 1559 1560 1560 1561 1561 1562 1563 1563 1564 1564 1563 1563 1563 1562 1562 1562 1562 1561 1561 1561 1562 1562 1562 1562 1562 1562 1562 1562 1562 1562 1562 1562 1562 1562 1562 1562 1561 1561 1561 1561 1561 1562
1534 1534 1534 1534 1534 1535 1536 1537 1537 1538 1539 1540 1541 1542 1543 1542 1541 1542 1542 1543 1544 1544 1544 1544 1545 1546 1546 1547 1549 1549 1548 1549 1550 1551 1552 1553 1554 1556 1557 1559 1559 1558 1558 1559 1559 1560 1561 1562 1563 1563 1563 1564 1564 1563 1563 1563 1562 1562 1562 1561 1561 1561 1561 1561 1561 1561 1561 1561 1561 1561 1560 1560 1561 1561 1561 1561 1561 1561 1561 1561 1560 1560 1560 1560 1561
1535 1535 1534 1534 1534 1534 1535 1536 1537 1538 1538 1539 1541 1541 1542 1541 1541 1541 1541 1542 1542 1542 1542 1542 1543 1545 1545 1546 1548 1549 1548 1549 1550 1551 1551 1553 1554 1556 1557 1558 1559 1559 1558 1559 1560 1562 1563 1563 1563 1563 1564 1564 1564 1563 1563 1563 1563 1562 1562 1562 1561 1561 1561 1561 1561 1561 1560 1560 1559 1559 1559 1558 1559 1559 1559 1559 1560 1561 1561 1560 1560 1559 1559 1559 1560
1534 1534 1534 1534 1534 1534 1535 1536 1536 1537 1538 1538 1540 1541 1541 1541 1541 1541 1541 1541 1541 1541 1542 1543 1543 1543 1545 1545 1547 1548 1549 1550 1550 1551 1551 1553 1554 1555 1557 1558 1559 1559 1559 1560 1562 1563 1564 1565 1564 1564 1564 1564 1564 1563 1563 1563 1563 1563 1563 1562 1562 1561 1561 1561 1561 1560 1560 1559 1559 1558 1557 1557 1557 1557 1557 1558 1559 1560 1560 1560 1560 1559 1559 1559 1559
1534 1534 1534 1534 1534 1534 1534 1535 1536 1537 1537 1538 1538 1539 1540 1540 1540 1540 1540 1540 1541 1541 1542 1542 1542 1542 1543 1544 1545 1547 1549 1550 1550 1551 1551 1552 1554 1555 1556 1558 1559 1559 1560 1561 1562 1563 1564 1565 1566 1565 1564 1564 1564 1564 1564 1564 1563 1563 1563 1563 1562 1562 1562 1561 1561 1561 1560 1559 1558 1558 1557 1556 1556 1556 1555 1556 1557 1558 1558 1558 1559 1559 1559 1558 1558
1533 1534 1534 1534 1534 1534 1534 1535 1536 1537 1537 1537 1537 1538 1539 1539 1539 1539 1540 1540 1540 1541 1541 1541 1541 1542 1542 1543 1545 1546 1548 1550 1551 1551 1551 1552 1554 1556 1557 1558 1559 1559 1560 1561 1562 1563 1564 1565 1566 1566 1565 1565 1564 1564 1564 1564 1564 1564 1563 1563 1563 1562 1562 1562 1562 1561 1560 1559 1559 1558 1557 1556 1555 1555 1555 1555 1555 1555 1555 1556 1557 1557 1558 1557 1557
1533 1533 1534 1534 1534 1535 1535 1535 1535 1536 1537 1536 1537 1537 1538 1538 1539 1539 1539 1539 1540 1540 1540 1541 1541 1542 1542 1543 1545 1546 1547 1549 1551 1552 1552 1553 1555 1556 1557 1558 1559 1560 1561 1562 1563 1564 1564 1565 1566 1566 1566 1565 1564 1564 1564 1564 1564 1564 1563 1563 1563 1563 1562 1562 1562 1561 1560 1560 1559 1558 1557 1556 1556 1555 1554 1554 1553 1553 1553 1554 1555 1556 1556 1556 1556
1532 1532 1533 1533 1534 1535 1535 1535 1535 1536 1536 1536 1537 1537 1537 1538 1538 1539 1539 1539 1540 1540 1540 1541 1541 1542 1543 1544 1545 1546 1546 1548 1550 1552 1553 1554 1555 1557 1558 1559 1560 1561 1562 1563 1564 1564 1565 1565 1566 1566 1566 1566 1564 1563 1564 1564 1564 1563 1563 1563 1563 1563 1562 1562 1562 1561 1560 1560 1559 1558 1557 1557 1556 1555 1554 1553 1553 1552 1552 1553 1554 1554 1554 1555 1555
1533 1532 1533 1533 1533 1534 1535 1536 1536 1536 1536 1537 1537 1538 1538 1538 1538 1539 1539 1539 1540 1540 1541 1542 1542 1543 1544 1544 1545 1546 1547 1548 1550 1552 1553 1555 1556 1557 1558 1559 1560 1562 1563 1563 1564 1565 1566 1566 1567 1567 1567 1566 1565 1564 1563 1563 1563 1563 1563 1563 1563 1562 1562 1561 1561 1560 1560 1559 1559 1558 1557 1556 1556 1555 1554 1553 1553 1552 1552 1552 1553 1553 1553 1554 1555
1533 1533 1533 1533 1534 1535 1535 1536 1535 1535 1536 1536 1537 1538 1539 1539 1539 1540 1540 1540 1541 1541 1542 1542 1543 1544 1545 1546 1547 1548 1549 1550 1551 1553 1554 1555 1556 1557 1559 1560 1561 1562 1563 1564 1565 1566 1567 1567 1567 1567 1567 1567 1566 1564 1563 1563 1563 1563 1563 1563 1562 1562 1561 1561 1560 1560 1559 1559 1558 1558 1557 1556 1556 1555 1554 1553 1553 1552 1552 1552 1552 1553 1553 1554 1554
1534 1534 1533 1533 1534 1534 1535 1535 1535 1536 1536 1536 1537 1538 1540 1540 1540 1540 1541 1541 1542 1542 1543 1543 1544 1545 1546 1547 1549 1549 1550 1551 1552 1554 1555 1556 1557 1558 1559 1560 1561 1562 1563 1564 1565 1566 1567 1568 1568 1567 1567 1566 1566 1564 1564 1563 1563 1563 1563 1562 1562 1561 1561 1560 1560 1559 1559 1558 1558 1557 1557 1556 1555 1555 1554 1553 1553 1552 1552 1552 1553 1553 1553 1553 1553
1535 1534 1534 1534 1534 1534 1535 1535 1536 1536 1536 1537 1538 1538 1540 1540 1540 1541 1541 1542 1543 1543 1544 1544 1545 1546 1547 1549 1550 1551 1551 1552 1553 1554 1555 1557 1557 1558 1559 1561 1562 1562 1563 1564 1566 1567 1567 1568 1568 1567 1566 1565 1565 1565 1564 1564 1563 1563 1562 1562 1561 1561 1561 1560 1560 1559 1559 1558 1558 1557 1556 1556 1555 1554 1554 1553 1553 1553 1552 1553 1553 1553 1553 1553 1553
1535 1535 1535 1535 1535 1536 1536 1536 1537 1537 1537 1538 1539 1539 1540 1540 1540 1541 1542 1542 1543 1544 1544 1545 1546 1547 1548 1549 1551 1551 1552 1553 1553 1554 1555 1557 1558 1559 1560 1561 1562 1563 1564 1565 1566 1567 1568 1568 1568 1567 1567 1566 1565 1565 1565 1564 1564 1563 1562 1562 1562 1562 1561 1561 1560 1559 1559 1558 1557 1557 1556 1555 1555 1554 1554 1553 1553 1553 1552 1552 1552 1552 1552 1552 1552
1536 1536 1537 1537 1537 1537 1537 1537 1538 1538 1538 1539 1539 1540 1540 1540 1541 1541 1542 1543 1544 1544 1545 1546 1547 1548 1549 1550 1551 1552 1552 1553 1554 1555 1556 1557 1559 1560 1561 1562 1562 1563 1564 1565 1567 1568 1568 1568 1568 1568 1567 1566 1566 1565 1565 1565 1564 1563 1563 1563 1562 1562 1561 1561 1560 1559 1559 1558 1557 1557 1556 1555 1555 1554 1553 1553 1552 1552 1552 1551 1551 1551 1551 1550 1550
1536 1537 1538 1538 1538 1538 1538 1538 1538 1539 1539 1540 1540 1540 1541 1541 1541 1542 1543 1544 1545 1545 1546 1547 1548 1549 1550 1551 1552 1552 1553 1554 1555 1556 1557 1558 1559 1560 1561 1562 1562 1563 1564 1565 1567 1568 1568 1568 1569 1568 1568 1567 1567 1566 1566 1566 1565 1564 1564 1563 1562 1561 1561 1561 1560 1559 1559 1558 1558 1557 1556 1556 1555 1554 1553 1553 1552 1552 1551 1550 1550 1549 1549 1549 1548
1537 1538 1539 1539 1539 1540 1539 1539 1539 1539 1540 1540 1541 1541 1541 1542 1542 1543 1544 1545 1546 1547 1547 1548 1549 1550 1551 1552 1553 1553 1554 1555 1556 1557 1558 1559 1561 1561 1562 1562 1563 1563 1564 1565 1567 1568 1568 1568 1568 1568 1568 1568 1567 1566 1566 1565 1565 1564 1563 1563 1562 1561 1561 1560 1560 1559 1558 1558 1558 1557 1556 1556 1555 1554 1553 1553 1552 1551 1551 1550 1549 1548 1548 1547 1547
1538 1539 1540 1540 1541 1541 1541 1541 1540 1540 1541 1541 1542 1542 1543 1543 1544 1545 1545 1546 1547 1548 1549 1550 1551 1552 1553 1553 1554 1555 1556 1557 1558 1558 1559 1560 1561 1562 1563 1563 1564 1564 1565 1566 1567 1568 1568 1569 1568 1568 1568 1567 1568 1567 1567 1565 1564 1564 1563 1562 1562 1561 1559 1558 1558 1558 1558 1557 1557 1556 1556 1555 1555 1554 1553 1552 1552 1551 1550 1549 1548 1547 1547 1546 1546
1538 1540 1541 1542 1542 1542 1542 1542 1542 1541 1542 1542 1543 1543 1544 1545 1545 1546 1547 1548 1549 1550 1551 1552 1552 1554 1554 1555 1556 1556 1557 1559 1559 1560 1561 1561 1562 1563 1564 1564 1565 1566 1566 1567 1568 1568 1568 1568 1569 1569 1568 1567 1568 1568 1567 1566 1565 1563 1563 1562 1561 1560 1559 1558 1557 1557 1557 1557 1556 1555 1554 1554 1553 1553 1552 1551 1551 1550 1549 1548 1548 1547 1546 1545 1544
1539 1540 1542 1542 1543 1544 1544 1544 1543 1543 1543 1543 1544 1544 1545 1546 1546 1547 1549 1550 1550 1551 1552 1553 1554 1554 1555 1556 1557 1557 1558 1559 1560 1561 1562 1563 1564 1564 1564 1565 1566 1566 1567 1567 1568 1568 1569 1569 1569 1568 1567 1567 1568 1567 1566 1565 1564 1564 1564 1564 1562 1561 1561 1560 1558 1557 1556 1556 1556 1555 1554 1553 1552 1551 1550 1549 1549 1548 1548 1547 1546 1545 1544 1543 1542
1539 1541 1542 1543 1544 1545 1545 1545 1545 1545 1545 1545 1545 1546 1546 1547 1547 1548 1549 1550 1551 1552 1553 1554 1555 1555 1556 1556 1557 1557 1558 1559 1560 1561 1562 1563 1564 1564 1565 1565 1565 1566 1566 1567 1568 1568 1569 1569 1569 1569 1568 1567 1568 1567 1566 1565 1564 1563 1564 1564 1563 1562 1561 1560 1559 1557 1555 1555 1555 1554 1554 1553 1552 1550 1549 1548 1547 1546 1545 1544 1544 1543 1542 1541 1541
1539 1541 1542 1543 1544 1545 1546 1546 1546 1546 1546 1546 1547 1547 1547 1548 1548 1549 1550 1551 1552 1552 1554 1555 1556 1556 1556 1557 1557 1558 1558 1559 1560 1560 1561 1562 1563 1564 1564 1565 1565 1565 1566 1567 1567 1568 1568 1569 1569 1569 1569 1568 1568 1568 1567 1566 1565 1564 1564 1564 1563 1563 1562 1560 1559 1558 1555 1553 1553 1553 1552 1551 1550 1550 1548 1547 1545 1544 1542 1541 1541 1540 1539 1539 1538
1540 1541 1542 1543 1544 1545 1545 1546 1547 1547 1547 1547 1548 1548 1548 1549 1549 1550 1551 1551 1552 1553 1554 1555 1555 1556 1556 1557 1557 1557 1558 1559 1559 1560 1561 1561 1562 1563 1564 1565 1565 1565 1566 1567 1567 1568 1568 1568 1569 1568 1568 1568 1568 1568 1567 1566 1566 1565 1565 1564 1563 1563 1562 1560 1559 1558 1555 1552 1550 1550 1549 1548 1547 1546 1545 1545 1544 1542 1541 1539 1538 1537 1536 1536 1535
1539 1541 1542 1543 1543 1544 1545 1546 1547 1548 1548 1548 1549 1549 1549 1549 1550 1550 1551 1552 1552 1553 1554 1554 1554 1555 1555 1556 1556 1557 1557 1558 1559 1560 1560 1560 1561 1562 1563 1564 1564 1564 1565 1566 1567 1567 1567 1568 1568 1568 1567 1567 1567 1567 1567 1566 1565 1565 1564 1563 1562 1562 1561 1559 1558 1557 1555 1552 1549 1547 1547 1545 1544 1543 1542 1541 1540 1539 1538 1538 1536 1535 1534 1533 1532
1539 1540 1541 1542 1542 1543 1544 1545 1547 1548 1548 1549 1549 1549 1549 1549 1549 1550 1551 1551 1552 1553 1553 1554 1554 1554 1554 1555 1555 1555 1556 1557 1557 1558 1558 1559 1560 1560 1561 1562 1562 1562 1563 1565 1566 1566 1566 1566 1567 1567 1567 1566 1566 1566 1566 1566 1565 1565 1564 1562 1561 1560 1559 1558 1556 1555 1554 1552 1549 1547 1546 1544 1543 1542 1540 1538 1537 1536 1535 1534 1533 1532 1532 1531 1529
1538 1539 1540 1541 1541 1542 1544 1545 1546 1547 1548 1548 1549 1549 1549 1549 1549 1549 1550 1550 1551 1551 1552 1552 1553 1553 1553 1554 1554 1554 1555 1555 1556 1556 1557 1557 1558 1559 1559 1560 1561 1561 1562 1564 1564 1565 1565 1565 1566 1566 1566 1566 1565 1565 1565 1565 1564 1564 1563 1561 1559 1558 1557 1556 1555 1554 1553 1551 1549 1546 1545 1543 1541 1540 1538 1536 1535 1533 1532 1531 1530 1529 1529 1528 1527
1537 1538 1539 1540 1541 1542 1543 1544 1545 1546 1546 1547 1547 1548 1548 1548 1548 1548 1549 1549 1550 1550 1550 1550 1551 1551 1551 1552 1552 1553 1553 1553 1554 1555 1555 1556 1557 1557 1557 1558 1559 1560 1561 1562 1563 1564 1564 1564 1564 1565 1565 1565 1565 1564 1563 1563 1563 1562 1562 1560 1558 1557 1555 1554 1553 1552 1551 1550 1547 1545 1543 1541 1539 1538 1536 1535 1533 1531 1530 1528 1526 1525 1525 1524 1523
1536 1537 1538 1539 1540 1541 1541 1542 1543 1544 1544 1545 1545 1546 1547 1547 1547 1547 1547 1547 1548 1548 1548 1548 1548 1548 1549 1549 1550 1550 1551 1551 1552 1553 1554 1555 1555 1555 1555 1556 1557 1558 1559 1560 1561 1562 1563 1563 1563 1563 1563 1563 1563 1563 1562 1563 1562 1561 1560 1559 1557 1555 1554 1552 1551 1550 1550 1548 1545 1542 1541 1540 1537 1535 1534 1534 1532 1530 1528 1526 1524 1522 1522 1521 1520
1534 1535 1536 1537 1538 1539 1540 1541 1541 1541 1541 1542 1543 1544 1545 1545 1546 1546 1546 1546 1546 1546 1546 1546 1546 1546 1546 1547 1547 1548 1548 1549 1550 1551 1552 1553 1553 1554 1553 1554 1555 1556 1557 1558 1559 1560 1561 1561 1562 1562 1562 1562 1562 1562 1562 1561 1560 1559 1558 1557 1555 1554 1552 1551 1549 1548 1547 1546 1543 1539 1538 1537 1535 1533 1532 1532 1530 1528 1527 1525 1522 1521 1519 1519 1518
1532 1533 1534 1535 1536 1537 1538 1539 1539 1539 1539 1540 1541 1542 1543 1543 1543 1544 1544 1544 1544 1544 1543 1543 1543 1543 1542 1544 1545 1545 1546 1548 1549 1549 1550 1551 1551 1552 1552 1552 1553 1554 1555 1556 1557 1558 1559 1559 1560 1560 1560 1561 1561 1560 1560 1559 1558 1557 1555 1554 1553 1552 1551 1549 1547 1545 1544 1543 1540 1537 1535 1534 1533 1531 1529 1529 1528 1526 1525 1523 1520 1518 1517 1515 1514
1529 1530 1532 1533 1534 1535 1535 1536 1537 1536 1536 1538 1540 1540 1540 1541 1541 1542 1542 1542 1541 1541 1541 1540 1540 1539 1539 1540 1542 1543 1544 1547 1547 1547 1547 1548 1549 1550 1550 1551 1551 1552 1553 1554 1555 1556 1557 1557 1558 1558 1558 1558 1558 1558 1557 1556 1555 1554 1553 1552 1551 1549 1548 1547 1545 1543 1541 1540 1537 1533 1531 1530 1530 1528 1527 1526 1524 1523 1522 1520 1518 1515 1513 1512 1510
1527 1528 1529 1530 1531 1532 1532 1533 1534 1533 1533 1535 1537 1537 1538 1539 1539 1539 1540 1540 1539 1539 1537 1537 1538 1538 1537 1538 1539 1541 1543 1545 1545 1545 1545 1546 1547 1548 1548 1549 1549 1550 1551 1552 1553 1554 1555 1555 1555 1556 1555 1555 1556 1555 1554 1553 1552 1551 1550 1549 1548 1546 1545 1543 1541 1539 1537 1536 1534 1531 1529 1528 1528 1527 1525 1523 1522 1520 1519 1517 1515 1513 1510 1509 1507
1526 1526 1527 1528 1528 1529 1529 1530 1531 1530 1530 1531 1533 1534 1535 1536 1536 1536 1537 1537 1536 1536 1535 1535 1536 1537 1537 1537 1537 1540 1542 1543 1544 1544 1544 1544 1545 1546 1546 1547 1547 1548 1549 1550 1551 1552 1552 1553 1553 1553 1553 1553 1553 1552 1551 1551 1550 1549 1547 1546 1545 1543 1541 1539 1538 1536 1536 1535 1534 1532 1529 1527 1527 1525 1522 1521 1519 1517 1516 1514 1512 1510 1508 1506 1504
1524 1524 1524 1525 1525 1525 1526 1527 1527 1527 1527 1528 1529 1530 1531 1532 1533 1533 1533 1534 1534 1533 1533 1534 1534 1535 1536 1536 1537 1539 1540 1541 1542 1543 1542 1543 1543 1544 1544 1545 1546 1546 1547 1548 1549 1550 1550 1551 1551 1551 1550 1550 1550 1549 1549 1548 1547 1546 1545 1543 1542 1541 1539 1538 1536 1536 1535 1534 1534 1532 1528 1526 1525 1523 1520 1519 1517 1514 1513 1511 1509 1507 1505 1503 1502
1522 1522 1522 1522 1522 1522 1522 1523 1524 1524 1524 1524 1525 1526 1527 1528 1529 1530 1531 1531 1531 1532 1532 1533 1533 1534 1534 1535 1536 1538 1538 1539 1540 1541 1541 1541 1541 1542 1542 1543 1544 1544 1545 1546 1547 1548 1548 1549 1548 1548 1548 1548 1547 1547 1547 1546 1545 1544 1542 1541 1540 1539 1537 1536 1535 1534 1533 1532 1531 1530 1526 1524 1523 1521 1518 1516 1514 1512 1510 1508 1507 1505 1503 1502 1500
1520 1520 1520 1520 1519 1519 1519 1520 1521 1521 1520 1521 1522 1523 1524 1525 1526 1527 1529 1529 1530 1530 1531 1532 1532 1532 1532 1533 1534 1535 1536 1537 1538 1539 1539 1540 1540 1541 1541 1542 1542 1543 1543 1545 1546 1546 1546 1546 1546 1546 1546 1545 1545 1545 1544 1543 1542 1541 1539 1538 1537 1536 1535 1534 1532 1531 1530 1529 1529 1527 1524 1522 1521 1519 1516 1513 1510 1509 1508 1507 1506 1504 1502 1500 1498
1519 1519 1519 1518 1517 1517 1517 1517 1518 1518 1518 1519 1520 1521 1521 1522 1524 1525 1527 1528 1529 1529 1530 1531 1531 1531 1531 1532 1533 1533 1534 1535 1536 1537 1537 1538 1539 1541 1541 1542 1542 1542 1542 1542 1544 1544 1544 1544 1544 1543 1543 1543 1542 1542 1541 1540 1539 1538 1536 1535 1534 1533 1532 1531 1530 1529 1527 1527 1527 1525 1522 1520 1518 1516 1515 1511 1507 1506 1506 1505 1504 1502 1501 1499 1497